Regional Weather Roundup
Issued by NWS

Home | Current Version | Previous Version | Text Only | Print | Product List | Glossary Off
Versions: 1 2 3 4 5 6 7 8 9 10 11 12 13 14 15 16 17 18 19 20 21 22 23 24 25 26 27 28 29 30 31 32 33 34 35 36 37 38 39 40 41 42 43 44 45 46 47 48 49 50

000
ASUS43 KOAX 232110
RWRNE

WEATHER ROUNDUP FOR NEBRASKA
NATIONAL WEATHER SERVICE OMAHA NE
400 PM CDT SAT MAY 23 2015

NOTES: SATELLITE DATA IS BEING USED TO AUGMENT CLOUD COVER ABOVE
       12000 FEET.
       "FAIR" INDICATES FEW OR NO CLOUDS BELOW 12,000 FEET WITH NO
       SIGNIFICANT WEATHER AND/OR OBSTRUCTIONS TO VISIBILITY.

  * THESE STATIONS DO NOT REPORT WEATHER SUCH AS RAIN...SNOW OR FOG.

NEZ001>004-019>022-054>056-232200-
NEBRASKA PANHANDLE

CITY           SKY/WX    TMP DP  RH WIND       PRES   REMARKS
SCOTTSBLUFF    CLOUDY    57  54  89 E15       29.95F
ALLIANCE       CLOUDY    54  53  97 SE15      29.98F FOG
CHADRON        LGT RAIN  59  54  83 NE10      29.98F
KIMBALL          N/A    N/A N/A N/A MISG        N/A
SIDNEY         TSTM      55  52  89 NE10G29   29.92F FOG
$$

NEZ057>060-069>072-079>082-232200-
SOUTHWEST NEBRASKA

CITY           SKY/WX    TMP DP  RH WIND       PRES   REMARKS
NORTH PLATTE   CLOUDY    61  55  81 E16       30.01F
IMPERIAL       CLOUDY    62  53  72 SE12      29.96F
LEXINGTON      CLOUDY    59  57  95 SE7       30.03F
MCCOOK         PTSUNNY   68  53  58 SE15G25   29.96F
OGALLALA       PTSUNNY   64  55  74 SE14      29.97F
$$

NEZ005>010-023>029-035>040-094-232200-
NORTH CENTRAL NEBRASKA

CITY           SKY/WX    TMP DP  RH WIND       PRES   REMARKS
VALENTINE      CLOUDY    59  53  80 SE15      30.05F
AINSWORTH      CLOUDY    57  55  93 SE9       30.07F
BROKEN BOW     LGT RAIN  58  54  86 SE9       30.05S
O`NEILL        CLOUDY    59  55  87 SE8       30.09F
ORD            CLOUDY    58  53  84 SE8       30.06F
THEDFORD       CLOUDY    56  55  95 SE12      30.05F
$$

NEZ041-046>049-061>064-073>077-083>087-232200-
SOUTH CENTRAL NEBRASKA

CITY           SKY/WX    TMP DP  RH WIND       PRES   REMARKS
GRAND ISLAND   CLOUDY    60  55  83 SE10      30.08F
AURORA         CLOUDY    61  59  93 SE9       30.07F
HASTINGS       CLOUDY    60  56  86 SE12      30.05F
HEBRON         LGT RAIN  60  57  89 SE9       30.07F
HOLDREGE       CLOUDY    59  56  89 E13       30.01F
KEARNEY *      CLOUDY    57  55  94 E14       30.05S
YORK           CLOUDY    59  57  94 SE10      30.08F
$$

NEZ011>018-030>034-042>045-232200-
NORTHEAST NEBRASKA

CITY           SKY/WX    TMP DP  RH WIND       PRES   REMARKS
NORFOLK        CLOUDY    59  55  87 E7        30.11F
ALBION         CLOUDY    59  53  81 SE10      30.09F
BLAIR          CLOUDY    62  55  76 S9        30.13S
COLUMBUS *     CLOUDY    59  52  77 SE7       30.14F
FREMONT        CLOUDY    61  57  87 SE5       30.13F
TEKAMAH        CLOUDY    63  55  75 S10       30.13F
WAYNE          CLOUDY    59  57  93 S12       30.13F FOG
$$

NEZ050>053-065>068-078-088>093-232200-
SOUTHEAST NEBRASKA

CITY           SKY/WX    TMP DP  RH WIND       PRES   REMARKS
LINCOLN        CLOUDY    63  58  83 S6        30.12F
OMAHA EPPLEY   CLOUDY    65  57  75 S8        30.12F
BEATRICE       LGT RAIN  60  59  97 S5        30.11F
FALLS CITY     CLOUDY    66  59  78 SE10      30.10F
NEBRASKA CITY  CLOUDY    65  57  75 SE9       30.12S
PLATTSMOUTH    CLOUDY    64  56  76 SE7       30.12F
$$

NEZ044-045-051>053-067-232200-
OMAHA AREA

CITY           SKY/WX    TMP DP  RH WIND       PRES   REMARKS
OMAHA EPPLEY   CLOUDY    65  57  75 S8        30.12F
BLAIR          CLOUDY    62  55  76 S9        30.13S
FREMONT        CLOUDY    61  57  87 SE5       30.13F
MILLARD        CLOUDY    64  57  79 CALM      30.14R
OFFUTT AFB     CLOUDY    65  58  78 SE8       30.11F
PLATTSMOUTH    CLOUDY    64  56  76 SE7       30.12F
WAHOO          CLOUDY    60  57  90 E5        30.12F FOG
$$



USA.gov is the U.S. government's official web portal to all federal, state and local government web resources and services.